Time,TemperatureF,DewpointF,PressureIn,WindDirection,WindDirectionDegrees,WindSpeedMPH,WindSpeedGustMPH,Humidity,HourlyPrecipIn,Conditions,Clouds,dailyrainin,SolarRadiationWatts/m^2,SoftwareType,DateUTC
2013-06-24 00:00:00,69.7,68.2,30.03,SW,234,7.0,13.0,95,0.00,OVC,OVC,0.00,0.0,WeatherDisplay:10.37,2013-06-24 04:00:00,
2013-06-24 00:05:00,69.7,68.2,30.03,WSW,237,3.0,10.0,95,0.00,OVC,OVC,0.00,0.0,WeatherDisplay:10.37,2013-06-24 04:05:00,
2013-06-24 00:15:00,69.6,68.1,30.02,WSW,237,6.0,10.0,95,0.00,OVC,OVC,0.00,0.0,WeatherDisplay:10.37,2013-06-24 04:15:00,
2013-06-24 00:20:00,69.6,68.1,30.02,WSW,238,8.0,17.0,95,0.00,OVC,OVC,0.00,0.0,WeatherDisplay:10.37,2013-06-24 04:20:00,
2013-06-24 00:30:00,69.5,68.0,30.02,WSW,241,7.0,17.0,95,0.00,OVC,OVC,0.00,0.0,WeatherDisplay:10.37,2013-06-24 04:30:00,
2013-06-24 00:35:00,69.5,68.0,30.02,WSW,249,6.0,14.0,95,0.00,OVC,OVC,0.00,0.0,WeatherDisplay:10.37,2013-06-24 04:35:00,
2013-06-24 00:40:00,69.5,68.0,30.02,WSW,246,5.0,14.0,95,0.00,OVC,OVC,0.00,0.0,WeatherDisplay:10.37,2013-06-24 04:40:00,
2013-06-24 00:45:00,69.5,68.0,30.01,WSW,240,6.0,14.0,95,0.00,OVC,OVC,0.00,0.0,WeatherDisplay:10.37,2013-06-24 04:45:00,
2013-06-24 00:50:00,69.5,68.0,30.01,WSW,243,8.0,17.0,95,0.00,OVC,OVC,0.00,0.0,WeatherDisplay:10.37,2013-06-24 04:50:00,
2013-06-24 00:55:00,69.5,68.0,30.01,WSW,252,8.0,15.0,95,0.00,OVC,OVC,0.00,0.0,WeatherDisplay:10.37,2013-06-24 04:55:00,
2013-06-24 01:00:00,69.5,68.0,30.01,WSW,246,8.0,15.0,95,0.00,OVC,OVC,0.00,0.0,WeatherDisplay:10.37,2013-06-24 05:00:00,
2013-06-24 01:05:00,69.5,68.0,30.01,SW,233,5.0,12.0,95,0.00,OVC,OVC,0.00,0.0,WeatherDisplay:10.37,2013-06-24 05:05:00,
2013-06-24 01:10:00,69.5,68.0,30.01,SW,232,3.0,12.0,95,0.00,OVC,OVC,0.00,0.0,WeatherDisplay:10.37,2013-06-24 05:10:00,
2013-06-24 01:15:00,69.5,68.0,30.01,SW,235,5.0,12.0,95,0.00,OVC,OVC,0.00,0.0,WeatherDisplay:10.37,2013-06-24 05:15:00,
2013-06-24 01:20:00,69.3,67.8,30.01,SW,236,6.0,13.0,95,0.00,OVC,OVC,0.00,0.0,WeatherDisplay:10.37,2013-06-24 05:20:00,
2013-06-24 01:25:00,69.2,67.7,30.01,SW,234,3.0,14.0,95,0.00,OVC,OVC,0.00,0.0,WeatherDisplay:10.37,2013-06-24 05:25:00,
2013-06-24 01:30:00,69.1,67.6,30.01,WSW,239,5.0,12.0,95,0.00,OVC,OVC,0.00,0.0,WeatherDisplay:10.37,2013-06-24 05:30:00,
2013-06-24 01:35:00,69.0,67.5,30.01,WSW,243,5.0,14.0,95,0.00,OVC,OVC,0.00,0.0,WeatherDisplay:10.37,2013-06-24 05:35:00,
2013-06-24 01:40:00,68.9,67.4,30.01,WSW,244,5.0,14.0,95,0.00,OVC,OVC,0.00,0.0,WeatherDisplay:10.37,2013-06-24 05:40:00,
2013-06-24 01:45:00,68.8,67.3,30.01,SW,236,8.0,12.0,95,0.00,OVC,OVC,0.00,0.0,WeatherDisplay:10.37,2013-06-24 05:45:00,
2013-06-24 01:50:00,68.8,67.3,30.01,WSW,248,3.0,13.0,95,0.00,OVC,OVC,0.00,0.0,WeatherDisplay:10.37,2013-06-24 05:50:00,
2013-06-24 02:05:00,68.9,67.7,30.01,SW,235,8.0,13.0,96,0.00,SCT,SCT,0.00,0.0,WeatherDisplay:10.37,2013-06-24 06:05:00,
2013-06-24 02:10:00,68.9,67.7,30.01,WSW,244,5.0,15.0,96,0.00,SCT,SCT,0.00,0.0,WeatherDisplay:10.37,2013-06-24 06:10:00,
2013-06-24 02:15:00,69.0,67.8,30.01,SW,236,5.0,12.0,96,0.00,SCT,SCT,0.00,0.0,WeatherDisplay:10.37,2013-06-24 06:15:00,
2013-06-24 02:20:00,69.0,67.8,30.00,WSW,239,6.0,17.0,96,0.00,SCT,SCT,0.00,0.0,WeatherDisplay:10.37,2013-06-24 06:20:00,
2013-06-24 02:25:00,69.1,67.9,30.00,WSW,240,6.0,17.0,96,0.00,SCT,SCT,0.00,0.0,WeatherDisplay:10.37,2013-06-24 06:25:00,
2013-06-24 02:30:00,69.1,67.9,30.00,WSW,240,2.0,13.0,96,0.00,SCT,SCT,0.00,0.0,WeatherDisplay:10.37,2013-06-24 06:30:00,
2013-06-24 02:35:00,69.1,67.9,30.00,WSW,242,6.0,14.0,96,0.00,SCT,SCT,0.00,0.0,WeatherDisplay:10.37,2013-06-24 06:35:00,
2013-06-24 02:40:00,69.2,68.0,30.00,WSW,249,5.0,9.0,96,0.00,SCT,SCT,0.00,0.0,WeatherDisplay:10.37,2013-06-24 06:40:00,
2013-06-24 02:50:00,69.4,68.2,30.00,WSW,239,10.0,17.0,96,0.00,SCT,SCT,0.00,0.0,WeatherDisplay:10.37,2013-06-24 06:50:00,
2013-06-24 02:55:00,69.5,68.0,30.00,WSW,241,10.0,17.0,95,0.00,SCT,SCT,0.00,0.0,WeatherDisplay:10.37,2013-06-24 06:55:00,
2013-06-24 03:00:00,69.6,68.4,30.00,WSW,243,8.0,20.0,96,0.00,SCT,SCT,0.00,0.0,WeatherDisplay:10.37,2013-06-24 07:00:00,
2013-06-24 03:05:00,69.6,68.4,30.00,WSW,242,7.0,18.0,96,0.00,OVC,OVC,0.00,0.0,WeatherDisplay:10.37,2013-06-24 07:05:00,
2013-06-24 03:10:00,69.5,68.0,30.00,WSW,240,6.0,21.0,95,0.00,OVC,OVC,0.00,0.0,WeatherDisplay:10.37,2013-06-24 07:10:00,
2013-06-24 03:15:00,69.4,67.9,30.00,SW,236,5.0,15.0,95,0.00,OVC,OVC,0.00,0.0,WeatherDisplay:10.37,2013-06-24 07:15:00,
2013-06-24 03:20:00,69.3,67.8,30.00,SW,227,6.0,15.0,95,0.00,OVC,OVC,0.00,0.0,WeatherDisplay:10.37,2013-06-24 07:20:00,
2013-06-24 03:25:00,69.2,68.0,30.00,SW,226,7.0,18.0,96,0.00,OVC,OVC,0.00,0.0,WeatherDisplay:10.37,2013-06-24 07:25:00,
2013-06-24 03:30:00,69.1,67.9,30.00,SW,234,7.0,21.0,96,0.00,OVC,OVC,0.00,0.0,WeatherDisplay:10.37,2013-06-24 07:30:00,
2013-06-24 03:35:00,69.0,67.8,30.00,WSW,238,9.0,14.0,96,0.00,OVC,OVC,0.00,0.0,WeatherDisplay:10.37,2013-06-24 07:35:00,
2013-06-24 03:40:00,69.0,67.8,30.00,WSW,241,8.0,20.0,96,0.00,OVC,OVC,0.00,0.0,WeatherDisplay:10.37,2013-06-24 07:40:00,
2013-06-24 03:50:00,68.9,67.7,29.99,WSW,243,8.0,14.0,96,0.00,OVC,OVC,0.00,0.0,WeatherDisplay:10.37,2013-06-24 07:50:00,
2013-06-24 03:55:00,68.8,67.6,29.99,WSW,242,7.0,15.0,96,0.00,OVC,OVC,0.00,0.0,WeatherDisplay:10.37,2013-06-24 07:55:00,
2013-06-24 04:00:00,68.8,67.6,30.00,WSW,240,7.0,12.0,96,0.00,OVC,OVC,0.00,0.0,WeatherDisplay:10.37,2013-06-24 08:00:00,
2013-06-24 04:05:00,68.8,67.6,30.00,SW,236,7.0,12.0,96,0.00,OVC,OVC,0.00,0.0,WeatherDisplay:10.37,2013-06-24 08:05:00,
2013-06-24 04:10:00,68.7,67.5,30.00,SW,233,7.0,21.0,96,0.00,OVC,OVC,0.00,0.0,WeatherDisplay:10.37,2013-06-24 08:10:00,
2013-06-24 04:15:00,68.7,67.5,30.00,SW,233,6.0,12.0,96,0.00,OVC,OVC,0.00,0.0,WeatherDisplay:10.37,2013-06-24 08:15:00,
2013-06-24 04:20:00,68.7,67.5,29.99,SW,230,8.0,21.0,96,0.00,OVC,OVC,0.00,0.0,WeatherDisplay:10.37,2013-06-24 08:20:00,
2013-06-24 04:25:00,68.6,67.4,29.99,SW,228,5.0,21.0,96,0.00,OVC,OVC,0.00,0.0,WeatherDisplay:10.37,2013-06-24 08:25:00,
2013-06-24 04:30:00,68.6,67.4,29.99,SW,236,6.0,12.0,96,0.00,OVC,OVC,0.00,0.0,WeatherDisplay:10.37,2013-06-24 08:30:00,
2013-06-24 04:35:00,68.5,67.3,29.99,WSW,242,6.0,16.0,96,0.00,OVC,OVC,0.00,0.0,WeatherDisplay:10.37,2013-06-24 08:35:00,
2013-06-24 04:45:00,68.5,67.6,29.98,WSW,238,7.0,15.0,97,0.00,OVC,OVC,0.00,0.0,WeatherDisplay:10.37,2013-06-24 08:45:00,
2013-06-24 04:50:00,68.5,67.6,29.98,SW,234,7.0,14.0,97,0.00,OVC,OVC,0.00,0.0,WeatherDisplay:10.37,2013-06-24 08:50:00,
2013-06-24 04:55:00,68.5,67.6,29.98,SW,236,5.0,14.0,97,0.00,OVC,OVC,0.00,0.0,WeatherDisplay:10.37,2013-06-24 08:55:00,
2013-06-24 05:00:00,68.5,67.6,29.98,SW,234,7.0,21.0,97,0.00,OVC,OVC,0.00,0.0,WeatherDisplay:10.37,2013-06-24 09:00:00,
2013-06-24 05:10:00,68.5,67.6,29.98,WSW,237,6.0,12.0,97,0.00,OVC,OVC,0.00,0.0,WeatherDisplay:10.37,2013-06-24 09:10:00,
2013-06-24 05:15:00,68.4,67.5,29.98,WSW,239,7.0,15.0,97,0.00,OVC,OVC,0.00,0.0,WeatherDisplay:10.37,2013-06-24 09:15:00,
2013-06-24 05:20:00,68.4,67.5,29.98,WSW,243,5.0,13.0,97,0.00,OVC,OVC,0.00,0.0,WeatherDisplay:10.37,2013-06-24 09:20:00,
2013-06-24 05:25:00,68.5,67.6,29.98,WSW,250,3.0,12.0,97,0.00,OVC,OVC,0.00,0.0,WeatherDisplay:10.37,2013-06-24 09:25:00,
2013-06-24 05:35:00,68.5,67.6,29.98,WSW,241,6.0,14.0,97,0.00,OVC,OVC,0.00,11.0,WeatherDisplay:10.37,2013-06-24 09:35:00,
2013-06-24 05:45:00,68.5,67.6,29.97,WSW,242,7.0,16.0,97,0.00,OVC,OVC,0.00,18.0,WeatherDisplay:10.37,2013-06-24 09:45:00,
2013-06-24 05:50:00,68.5,67.6,29.97,WSW,244,8.0,12.0,97,0.00,OVC,OVC,0.00,21.0,WeatherDisplay:10.37,2013-06-24 09:50:00,
2013-06-24 05:55:00,68.6,67.7,29.97,WSW,238,2.0,12.0,97,0.00,OVC,OVC,0.00,30.0,WeatherDisplay:10.37,2013-06-24 09:55:00,
2013-06-24 06:00:00,68.6,67.7,29.97,SW,229,2.0,15.0,97,0.00,OVC,OVC,0.00,37.0,WeatherDisplay:10.37,2013-06-24 10:00:00,
2013-06-24 06:05:00,68.5,67.6,29.97,SW,224,3.0,10.0,97,0.00,BKN,BKN,0.00,40.0,WeatherDisplay:10.37,2013-06-24 10:05:00,
2013-06-24 06:10:00,68.4,67.5,29.97,SW,224,3.0,9.0,97,0.00,BKN,BKN,0.00,40.0,WeatherDisplay:10.37,2013-06-24 10:10:00,
2013-06-24 06:15:00,68.4,67.5,29.97,SW,225,3.0,12.0,97,0.00,BKN,BKN,0.00,47.0,WeatherDisplay:10.37,2013-06-24 10:15:00,
2013-06-24 06:20:00,68.3,67.4,29.97,SW,220,5.0,7.0,97,0.00,BKN,BKN,0.00,33.0,WeatherDisplay:10.37,2013-06-24 10:20:00,
2013-06-24 06:25:00,68.3,67.4,29.97,SSW,212,3.0,8.0,97,0.00,BKN,BKN,0.00,46.0,WeatherDisplay:10.37,2013-06-24 10:25:00,
2013-06-24 06:35:00,68.2,67.0,29.96,SW,225,7.0,21.0,96,0.00,BKN,BKN,0.00,81.0,WeatherDisplay:10.37,2013-06-24 10:35:00,
2013-06-24 06:40:00,68.2,67.0,29.96,SW,220,5.0,12.0,96,0.00,BKN,BKN,0.00,76.0,WeatherDisplay:10.37,2013-06-24 10:40:00,
2013-06-24 06:45:00,68.1,66.9,29.95,SSW,211,7.0,13.0,96,0.00,BKN,BKN,0.00,90.0,WeatherDisplay:10.37,2013-06-24 10:45:00,
2013-06-24 06:55:00,68.2,67.3,29.95,SW,226,3.0,9.0,97,0.00,SCT,SCT,0.00,135.0,WeatherDisplay:10.37,2013-06-24 10:55:00,
2013-06-24 07:00:00,68.3,67.4,29.96,SW,228,5.0,21.0,97,0.00,SCT,SCT,0.00,141.0,WeatherDisplay:10.37,2013-06-24 11:00:00,
2013-06-24 07:10:00,68.4,67.5,29.96,SW,228,6.0,9.0,97,0.00,SCT,SCT,0.00,72.0,WeatherDisplay:10.37,2013-06-24 11:10:00,
2013-06-24 07:15:00,68.3,67.1,29.96,SW,235,6.0,13.0,96,0.00,BKN,BKN,0.00,46.0,WeatherDisplay:10.37,2013-06-24 11:15:00,
2013-06-24 07:20:00,68.1,66.9,29.96,SW,227,5.0,10.0,96,0.00,BKN,BKN,0.00,65.0,WeatherDisplay:10.37,2013-06-24 11:20:00,
2013-06-24 07:35:00,68.1,67.0,29.97,WSW,241,2.0,10.0,96,0.00,BKN,BKN,0.00,130.0,WeatherDisplay:10.37,2013-06-24 11:35:00,
2013-06-24 07:40:00,68.3,67.1,29.97,SW,234,3.0,12.0,96,0.00,BKN,BKN,0.00,118.0,WeatherDisplay:10.37,2013-06-24 11:40:00,
2013-06-24 07:50:00,68.7,67.8,29.97,WSW,251,2.0,12.0,97,0.00,BKN,BKN,0.00,139.0,WeatherDisplay:10.37,2013-06-24 11:50:00,
2013-06-24 07:55:00,69.0,68.1,29.97,WSW,257,6.0,14.0,97,0.00,BKN,BKN,0.00,146.0,WeatherDisplay:10.37,2013-06-24 11:55:00,
2013-06-24 08:00:00,69.1,68.2,29.97,SW,236,5.0,12.0,97,0.00,BKN,BKN,0.00,190.0,WeatherDisplay:10.37,2013-06-24 12:00:00,
2013-06-24 08:10:00,69.4,68.2,29.97,WSW,252,3.0,13.0,96,0.00,SCT,SCT,0.00,250.0,WeatherDisplay:10.37,2013-06-24 12:10:00,
2013-06-24 08:15:00,69.6,68.4,29.96,WSW,241,10.0,21.0,96,0.00,SCT,SCT,0.00,250.0,WeatherDisplay:10.37,2013-06-24 12:15:00,
2013-06-24 08:20:00,69.8,68.6,29.96,SW,236,5.0,7.0,96,0.00,SCT,SCT,0.00,234.0,WeatherDisplay:10.37,2013-06-24 12:20:00,
2013-06-24 08:25:00,70.0,68.5,29.96,SW,235,7.0,16.0,95,0.00,SCT,SCT,0.00,318.0,WeatherDisplay:10.37,2013-06-24 12:25:00,
2013-06-24 08:30:00,70.1,68.6,29.96,SW,232,5.0,12.0,95,0.00,SCT,SCT,0.00,204.0,WeatherDisplay:10.37,2013-06-24 12:30:00,
2013-06-24 08:35:00,70.3,68.5,29.96,SW,234,3.0,12.0,94,0.00,SCT,SCT,0.00,232.0,WeatherDisplay:10.37,2013-06-24 12:35:00,
2013-06-24 08:40:00,70.6,68.7,29.96,SW,223,5.0,21.0,94,0.00,SCT,SCT,0.00,274.0,WeatherDisplay:10.37,2013-06-24 12:40:00,
2013-06-24 08:50:00,70.7,68.6,29.96,SW,216,6.0,12.0,93,0.00,SCT,SCT,0.00,290.0,WeatherDisplay:10.37,2013-06-24 12:50:00,
2013-06-24 08:55:00,71.0,68.9,29.96,SW,219,2.0,10.0,93,0.00,SCT,SCT,0.00,304.0,WeatherDisplay:10.37,2013-06-24 12:55:00,
2013-06-24 09:00:00,71.6,69.5,29.96,SW,218,2.0,10.0,93,0.00,SCT,SCT,0.00,329.0,WeatherDisplay:10.37,2013-06-24 13:00:00,
2013-06-24 09:05:00,72.1,69.7,29.96,SSW,196,3.0,7.0,92,0.00,OVC,OVC,0.00,343.0,WeatherDisplay:10.37,2013-06-24 13:05:00,
2013-06-24 09:10:00,72.3,69.5,29.96,SSW,204,3.0,21.0,91,0.00,OVC,OVC,0.00,322.0,WeatherDisplay:10.37,2013-06-24 13:10:00,
2013-06-24 09:15:00,72.8,70.1,29.96,SSW,206,3.0,8.0,91,0.00,OVC,OVC,0.00,663.0,WeatherDisplay:10.37,2013-06-24 13:15:00,
2013-06-24 09:20:00,73.3,69.9,29.96,SW,219,3.0,21.0,89,0.00,OVC,OVC,0.00,608.0,WeatherDisplay:10.37,2013-06-24 13:20:00,
2013-06-24 09:30:00,74.6,70.5,29.95,SSW,198,3.0,10.0,87,0.00,OVC,OVC,0.00,622.0,WeatherDisplay:10.37,2013-06-24 13:30:00,
2013-06-24 09:35:00,74.5,70.4,29.94,SSW,205,5.0,10.0,87,0.00,OVC,OVC,0.00,631.0,WeatherDisplay:10.37,2013-06-24 13:35:00,
2013-06-24 09:40:00,74.6,70.5,29.94,SW,221,5.0,6.0,87,0.00,OVC,OVC,0.00,640.0,WeatherDisplay:10.37,2013-06-24 13:40:00,
2013-06-24 09:50:00,74.6,70.5,29.94,SSW,209,3.0,10.0,87,0.00,OVC,OVC,0.00,659.0,WeatherDisplay:10.37,2013-06-24 13:50:00,
2013-06-24 10:00:00,76.1,71.6,29.94,SW,223,3.0,10.0,86,0.00,OVC,OVC,0.00,680.0,WeatherDisplay:10.37,2013-06-24 14:00:00,
2013-06-24 10:05:00,76.6,71.4,29.94,SW,234,7.0,12.0,84,0.00,OVC,OVC,0.00,693.0,WeatherDisplay:10.37,2013-06-24 14:05:00,
2013-06-24 10:10:00,76.8,71.6,29.94,SW,234,2.0,9.0,84,0.00,OVC,OVC,0.00,701.0,WeatherDisplay:10.37,2013-06-24 14:10:00,
2013-06-24 10:15:00,76.5,71.3,29.94,WSW,242,6.0,21.0,84,0.00,OVC,OVC,0.00,708.0,WeatherDisplay:10.37,2013-06-24 14:15:00,
2013-06-24 10:20:00,77.3,72.0,29.94,WSW,243,2.0,9.0,84,0.00,OVC,OVC,0.00,721.0,WeatherDisplay:10.37,2013-06-24 14:20:00,
2013-06-24 10:25:00,77.4,71.5,29.94,SW,219,6.0,21.0,82,0.00,OVC,OVC,0.00,726.0,WeatherDisplay:10.37,2013-06-24 14:25:00,
2013-06-24 10:30:00,77.2,71.7,29.94,SSW,211,5.0,9.0,83,0.00,OVC,OVC,0.00,738.0,WeatherDisplay:10.37,2013-06-24 14:30:00,
2013-06-24 10:40:00,77.8,71.5,29.94,SSW,213,5.0,9.0,81,0.00,OVC,OVC,0.00,758.0,WeatherDisplay:10.37,2013-06-24 14:40:00,
2013-06-24 10:45:00,78.0,71.6,29.94,SSW,197,3.0,21.0,81,0.00,OVC,OVC,0.00,766.0,WeatherDisplay:10.37,2013-06-24 14:45:00,
2013-06-24 10:50:00,78.5,72.2,29.94,SSW,208,3.0,21.0,81,0.00,OVC,OVC,0.00,772.0,WeatherDisplay:10.37,2013-06-24 14:50:00,
2013-06-24 10:55:00,78.5,72.2,29.94,SSW,213,5.0,9.0,81,0.00,OVC,OVC,0.00,786.0,WeatherDisplay:10.37,2013-06-24 14:55:00,
2013-06-24 11:00:00,78.5,72.2,29.93,SW,217,7.0,12.0,81,0.00,OVC,OVC,0.00,791.0,WeatherDisplay:10.37,2013-06-24 15:00:00,
2013-06-24 11:10:00,78.6,71.5,29.93,SSW,213,5.0,21.0,79,0.00,FEW,FEW,0.00,809.0,WeatherDisplay:10.37,2013-06-24 15:10:00,
2013-06-24 11:25:00,78.3,72.0,29.93,SSW,210,3.0,7.0,81,0.00,FEW,FEW,0.00,830.0,WeatherDisplay:10.37,2013-06-24 15:25:00,
2013-06-24 11:30:00,78.5,72.2,29.93,SSW,207,5.0,7.0,81,0.00,FEW,FEW,0.00,838.0,WeatherDisplay:10.37,2013-06-24 15:30:00,
2013-06-24 11:35:00,79.7,72.9,29.93,SSW,211,2.0,9.0,80,0.00,FEW,FEW,0.00,842.0,WeatherDisplay:10.37,2013-06-24 15:35:00,
2013-06-24 11:40:00,80.5,73.0,29.93,SW,216,5.0,21.0,78,0.00,FEW,FEW,0.00,844.0,WeatherDisplay:10.37,2013-06-24 15:40:00,
2013-06-24 11:45:00,80.7,73.2,29.93,SSW,201,5.0,9.0,78,0.00,FEW,FEW,0.00,849.0,WeatherDisplay:10.37,2013-06-24 15:45:00,
2013-06-24 11:55:00,80.6,73.1,29.93,SW,217,3.0,21.0,78,0.00,FEW,FEW,0.00,854.0,WeatherDisplay:10.37,2013-06-24 15:55:00,
2013-06-24 12:00:00,80.9,73.0,29.93,WSW,247,2.0,8.0,77,0.00,FEW,FEW,0.00,858.0,WeatherDisplay:10.37,2013-06-24 16:00:00,
2013-06-24 12:10:00,81.3,73.0,29.93,SW,230,2.0,10.0,76,0.00,CLR,CLR,0.00,861.0,WeatherDisplay:10.37,2013-06-24 16:10:00,
2013-06-24 12:15:00,81.0,73.1,29.93,WSW,247,3.0,21.0,77,0.00,CLR,CLR,0.00,868.0,WeatherDisplay:10.37,2013-06-24 16:15:00,
2013-06-24 12:25:00,82.9,73.7,29.92,SW,235,5.0,9.0,74,0.00,CLR,CLR,0.00,868.0,WeatherDisplay:10.37,2013-06-24 16:25:00,
2013-06-24 12:30:00,82.5,73.8,29.92,SW,232,5.0,9.0,75,0.00,CLR,CLR,0.00,868.0,WeatherDisplay:10.37,2013-06-24 16:30:00,
2013-06-24 12:35:00,82.0,73.7,29.92,SW,230,6.0,21.0,76,0.00,CLR,CLR,0.00,868.0,WeatherDisplay:10.37,2013-06-24 16:35:00,
2013-06-24 12:40:00,82.0,74.0,29.92,SW,229,5.0,8.0,77,0.00,CLR,CLR,0.00,870.0,WeatherDisplay:10.37,2013-06-24 16:40:00,
2013-06-24 12:45:00,82.2,73.9,29.92,SW,218,5.0,12.0,76,0.00,CLR,CLR,0.00,874.0,WeatherDisplay:10.37,2013-06-24 16:45:00,
2013-06-24 12:50:00,82.7,74.0,29.91,SW,220,7.0,12.0,75,0.00,CLR,CLR,0.00,877.0,WeatherDisplay:10.37,2013-06-24 16:50:00,
2013-06-24 12:55:00,82.6,73.9,29.91,SSW,207,5.0,12.0,75,0.00,CLR,CLR,0.00,875.0,WeatherDisplay:10.37,2013-06-24 16:55:00,
2013-06-24 13:05:00,83.4,74.6,29.91,SSW,211,1.0,10.0,75,0.00,CLR,CLR,0.00,872.0,WeatherDisplay:10.37,2013-06-24 17:05:00,
2013-06-24 13:10:00,83.5,74.3,29.91,SW,222,6.0,9.0,74,0.00,CLR,CLR,0.00,868.0,WeatherDisplay:10.37,2013-06-24 17:10:00,
2013-06-24 13:20:00,82.5,73.8,29.91,SSW,206,5.0,21.0,75,0.00,CLR,CLR,0.00,865.0,WeatherDisplay:10.37,2013-06-24 17:20:00,
2013-06-24 13:25:00,82.5,73.8,29.91,SSW,201,7.0,12.0,75,0.00,CLR,CLR,0.00,861.0,WeatherDisplay:10.37,2013-06-24 17:25:00,
2013-06-24 13:30:00,83.1,74.4,29.91,SSW,211,2.0,21.0,75,0.00,CLR,CLR,0.00,856.0,WeatherDisplay:10.37,2013-06-24 17:30:00,
2013-06-24 13:40:00,83.8,74.6,29.91,SW,215,2.0,21.0,74,0.00,CLR,CLR,0.00,853.0,WeatherDisplay:10.37,2013-06-24 17:40:00,
2013-06-24 13:55:00,83.8,74.7,29.91,SW,226,3.0,12.0,74,0.00,CLR,CLR,0.00,842.0,WeatherDisplay:10.37,2013-06-24 17:55:00,
2013-06-24 14:00:00,84.6,74.6,29.90,SW,224,5.0,13.0,72,0.00,CLR,CLR,0.00,838.0,WeatherDisplay:10.37,2013-06-24 18:00:00,
2013-06-24 14:05:00,84.8,74.3,29.90,SSW,211,5.0,12.0,71,0.00,CLR,CLR,0.00,833.0,WeatherDisplay:10.37,2013-06-24 18:05:00,
2013-06-24 14:10:00,84.1,74.1,29.90,SSW,206,5.0,12.0,72,0.00,CLR,CLR,0.00,826.0,WeatherDisplay:10.37,2013-06-24 18:10:00,
2013-06-24 14:15:00,84.0,74.0,29.90,SSW,207,5.0,13.0,72,0.00,CLR,CLR,0.00,821.0,WeatherDisplay:10.37,2013-06-24 18:15:00,
2013-06-24 14:20:00,84.6,74.2,29.90,SW,217,3.0,21.0,71,0.00,CLR,CLR,0.00,810.0,WeatherDisplay:10.37,2013-06-24 18:20:00,
2013-06-24 14:25:00,84.3,74.7,29.90,SW,221,2.0,12.0,73,0.00,CLR,CLR,0.00,807.0,WeatherDisplay:10.37,2013-06-24 18:25:00,
2013-06-24 14:30:00,83.8,73.8,29.90,SW,220,6.0,15.0,72,0.00,CLR,CLR,0.00,796.0,WeatherDisplay:10.37,2013-06-24 18:30:00,
2013-06-24 14:35:00,83.8,74.3,29.90,SW,231,5.0,21.0,73,0.00,CLR,CLR,0.00,791.0,WeatherDisplay:10.37,2013-06-24 18:35:00,
2013-06-24 14:40:00,84.8,74.4,29.90,SW,226,3.0,12.0,71,0.00,CLR,CLR,0.00,773.0,WeatherDisplay:10.37,2013-06-24 18:40:00,
2013-06-24 14:45:00,85.0,74.1,29.89,SW,215,6.0,10.0,70,0.00,CLR,CLR,0.00,772.0,WeatherDisplay:10.37,2013-06-24 18:45:00,
2013-06-24 14:55:00,84.7,73.8,29.89,SW,223,7.0,13.0,70,0.00,CLR,CLR,0.00,756.0,WeatherDisplay:10.37,2013-06-24 18:55:00,
2013-06-24 15:05:00,84.8,73.9,29.89,SW,230,7.0,12.0,70,0.00,CLR,CLR,0.00,737.0,WeatherDisplay:10.37,2013-06-24 19:05:00,
2013-06-24 15:10:00,84.9,74.0,29.89,SW,232,5.0,14.0,70,0.00,CLR,CLR,0.00,729.0,WeatherDisplay:10.37,2013-06-24 19:10:00,
2013-06-24 15:15:00,85.0,74.2,29.88,WSW,246,7.0,13.0,70,0.00,CLR,CLR,0.00,714.0,WeatherDisplay:10.37,2013-06-24 19:15:00,
2013-06-24 15:20:00,85.2,73.9,29.88,WSW,242,10.0,18.0,69,0.00,CLR,CLR,0.00,707.0,WeatherDisplay:10.37,2013-06-24 19:20:00,
2013-06-24 15:30:00,84.9,73.5,29.88,SW,232,5.0,18.0,69,0.00,CLR,CLR,0.00,675.0,WeatherDisplay:10.37,2013-06-24 19:30:00,
2013-06-24 15:35:00,85.0,73.7,29.88,WSW,239,8.0,21.0,69,0.00,CLR,CLR,0.00,643.0,WeatherDisplay:10.37,2013-06-24 19:35:00,
2013-06-24 15:40:00,84.5,73.6,29.88,WSW,246,8.0,18.0,70,0.00,CLR,CLR,0.00,541.0,WeatherDisplay:10.37,2013-06-24 19:40:00,
2013-06-24 15:45:00,84.8,73.9,29.88,WSW,245,8.0,14.0,70,0.00,CLR,CLR,0.00,664.0,WeatherDisplay:10.37,2013-06-24 19:45:00,
2013-06-24 15:50:00,84.6,73.7,29.88,WSW,242,7.0,15.0,70,0.00,CLR,CLR,0.00,643.0,WeatherDisplay:10.37,2013-06-24 19:50:00,
2013-06-24 15:55:00,84.3,73.4,29.88,WSW,251,7.0,15.0,70,0.00,CLR,CLR,0.00,622.0,WeatherDisplay:10.37,2013-06-24 19:55:00,
2013-06-24 16:00:00,84.5,73.7,29.87,WSW,253,8.0,14.0,70,0.00,CLR,CLR,0.00,612.0,WeatherDisplay:10.37,2013-06-24 20:00:00,
2013-06-24 16:05:00,84.7,73.8,29.87,WSW,244,7.0,15.0,70,0.00,CLR,CLR,0.00,599.0,WeatherDisplay:10.37,2013-06-24 20:05:00,
2013-06-24 16:10:00,84.5,73.6,29.87,WSW,237,7.0,14.0,70,0.00,CLR,CLR,0.00,587.0,WeatherDisplay:10.37,2013-06-24 20:10:00,
2013-06-24 16:20:00,84.1,73.3,29.86,WSW,243,6.0,20.0,70,0.00,CLR,CLR,0.00,561.0,WeatherDisplay:10.37,2013-06-24 20:20:00,
2013-06-24 16:25:00,84.2,73.3,29.86,WSW,245,7.0,13.0,70,0.00,CLR,CLR,0.00,545.0,WeatherDisplay:10.37,2013-06-24 20:25:00,
2013-06-24 16:30:00,84.1,73.3,29.86,WSW,239,6.0,15.0,70,0.00,CLR,CLR,0.00,533.0,WeatherDisplay:10.37,2013-06-24 20:30:00,
2013-06-24 16:40:00,83.8,73.4,29.86,SW,233,7.0,13.0,71,0.00,CLR,CLR,0.00,499.0,WeatherDisplay:10.37,2013-06-24 20:40:00,
2013-06-24 16:45:00,83.8,73.0,29.85,WSW,240,5.0,16.0,70,0.00,CLR,CLR,0.00,473.0,WeatherDisplay:10.37,2013-06-24 20:45:00,
2013-06-24 16:50:00,83.8,73.0,29.85,SW,234,5.0,21.0,70,0.00,CLR,CLR,0.00,468.0,WeatherDisplay:10.37,2013-06-24 20:50:00,
2013-06-24 16:55:00,83.8,73.0,29.85,SW,229,7.0,21.0,70,0.00,CLR,CLR,0.00,455.0,WeatherDisplay:10.37,2013-06-24 20:55:00,
2013-06-24 17:00:00,83.7,73.3,29.85,WSW,237,5.0,13.0,71,0.00,CLR,CLR,0.00,443.0,WeatherDisplay:10.37,2013-06-24 21:00:00,
2013-06-24 17:10:00,83.3,72.9,29.85,WSW,240,6.0,14.0,71,0.00,CLR,CLR,0.00,417.0,WeatherDisplay:10.37,2013-06-24 21:10:00,
2013-06-24 17:15:00,83.4,73.0,29.85,WSW,237,7.0,14.0,71,0.00,CLR,CLR,0.00,406.0,WeatherDisplay:10.37,2013-06-24 21:15:00,
2013-06-24 17:25:00,83.9,73.1,29.85,WSW,251,5.0,14.0,70,0.00,CLR,CLR,0.00,381.0,WeatherDisplay:10.37,2013-06-24 21:25:00,
2013-06-24 17:30:00,83.5,72.7,29.85,WSW,250,3.0,17.0,70,0.00,CLR,CLR,0.00,371.0,WeatherDisplay:10.37,2013-06-24 21:30:00,
2013-06-24 17:40:00,83.6,72.7,29.85,WSW,242,8.0,15.0,70,0.00,CLR,CLR,0.00,334.0,WeatherDisplay:10.37,2013-06-24 21:40:00,
2013-06-24 17:55:00,83.4,72.6,29.85,WSW,242,6.0,13.0,70,0.00,CLR,CLR,0.00,304.0,WeatherDisplay:10.37,2013-06-24 21:55:00,
2013-06-24 18:00:00,83.3,72.5,29.85,SW,232,8.0,13.0,70,0.00,CLR,CLR,0.00,283.0,WeatherDisplay:10.37,2013-06-24 22:00:00,
2013-06-24 18:05:00,83.1,72.7,29.85,WSW,238,8.0,12.0,71,0.00,CLR,CLR,0.00,269.0,WeatherDisplay:10.37,2013-06-24 22:05:00,
2013-06-24 18:10:00,83.0,72.6,29.85,SW,234,5.0,21.0,71,0.00,CLR,CLR,0.00,251.0,WeatherDisplay:10.37,2013-06-24 22:10:00,
2013-06-24 18:15:00,83.1,72.7,29.84,SW,227,6.0,10.0,71,0.00,CLR,CLR,0.00,244.0,WeatherDisplay:10.37,2013-06-24 22:15:00,
2013-06-24 18:20:00,83.0,72.2,29.84,WSW,237,7.0,21.0,70,0.00,CLR,CLR,0.00,232.0,WeatherDisplay:10.37,2013-06-24 22:20:00,
2013-06-24 18:30:00,82.5,72.2,29.85,WSW,247,6.0,15.0,71,0.00,CLR,CLR,0.00,91.0,WeatherDisplay:10.37,2013-06-24 22:30:00,
2013-06-24 18:40:00,81.6,71.7,29.85,WSW,246,6.0,10.0,72,0.00,CLR,CLR,0.00,88.0,WeatherDisplay:10.37,2013-06-24 22:40:00,
2013-06-24 18:50:00,81.2,71.3,29.85,WSW,240,5.0,10.0,72,0.00,CLR,CLR,0.00,116.0,WeatherDisplay:10.37,2013-06-24 22:50:00,
2013-06-24 19:00:00,81.3,71.4,29.85,WSW,252,2.0,10.0,72,0.00,CLR,CLR,0.00,100.0,WeatherDisplay:10.37,2013-06-24 23:00:00,
2013-06-24 19:05:00,81.3,71.4,29.85,WSW,249,6.0,13.0,72,0.00,CLR,CLR,0.00,76.0,WeatherDisplay:10.37,2013-06-24 23:05:00,
2013-06-24 19:10:00,81.1,71.6,29.85,WSW,247,3.0,21.0,73,0.00,CLR,CLR,0.00,67.0,WeatherDisplay:10.37,2013-06-24 23:10:00,
2013-06-24 19:15:00,80.9,71.5,29.85,WSW,252,5.0,10.0,73,0.00,CLR,CLR,0.00,49.0,WeatherDisplay:10.37,2013-06-24 23:15:00,
2013-06-24 19:20:00,80.8,71.3,29.85,West,274,6.0,10.0,73,0.00,CLR,CLR,0.00,46.0,WeatherDisplay:10.37,2013-06-24 23:20:00,
2013-06-24 19:25:00,80.8,71.3,29.85,West,266,3.0,14.0,73,0.00,CLR,CLR,0.00,40.0,WeatherDisplay:10.37,2013-06-24 23:25:00,
2013-06-24 19:30:00,80.7,71.2,29.85,West,264,3.0,12.0,73,0.00,CLR,CLR,0.00,35.0,WeatherDisplay:10.37,2013-06-24 23:30:00,
2013-06-24 19:35:00,80.7,71.2,29.85,West,271,2.0,21.0,73,0.00,CLR,CLR,0.00,30.0,WeatherDisplay:10.37,2013-06-24 23:35:00,
2013-06-24 19:40:00,80.7,71.2,29.85,WSW,258,2.0,9.0,73,0.00,CLR,CLR,0.00,26.0,WeatherDisplay:10.37,2013-06-24 23:40:00,
2013-06-24 19:45:00,80.7,71.2,29.85,WSW,258,2.0,13.0,73,0.00,CLR,CLR,0.00,21.0,WeatherDisplay:10.37,2013-06-24 23:45:00,
2013-06-24 19:50:00,80.6,71.1,29.85,WSW,250,5.0,13.0,73,0.00,CLR,CLR,0.00,18.0,WeatherDisplay:10.37,2013-06-24 23:50:00,
2013-06-24 19:55:00,80.4,70.9,29.85,WSW,241,3.0,21.0,73,0.00,CLR,CLR,0.00,16.0,WeatherDisplay:10.37,2013-06-24 23:55:00,
2013-06-24 20:00:00,80.2,71.2,29.85,WSW,241,5.0,21.0,74,0.00,CLR,CLR,0.00,12.0,WeatherDisplay:10.37,2013-06-25 00:00:00,
2013-06-24 20:05:00,80.1,71.1,29.85,WSW,258,6.0,10.0,74,0.00,CLR,CLR,0.00,9.0,WeatherDisplay:10.37,2013-06-25 00:05:00,
2013-06-24 20:15:00,80.1,71.1,29.85,West,266,7.0,14.0,74,0.00,CLR,CLR,0.00,0.0,WeatherDisplay:10.37,2013-06-25 00:15:00,
2013-06-24 20:20:00,80.1,71.1,29.85,West,265,7.0,13.0,74,0.00,CLR,CLR,0.00,0.0,WeatherDisplay:10.37,2013-06-25 00:20:00,
2013-06-24 20:30:00,80.1,71.1,29.85,West,263,3.0,10.0,74,0.00,CLR,CLR,0.00,0.0,WeatherDisplay:10.37,2013-06-25 00:30:00,
2013-06-24 20:35:00,80.1,71.1,29.86,WSW,258,5.0,10.0,74,0.00,CLR,CLR,0.00,0.0,WeatherDisplay:10.37,2013-06-25 00:35:00,
2013-06-24 20:40:00,80.1,71.1,29.86,West,261,3.0,12.0,74,0.00,CLR,CLR,0.00,0.0,WeatherDisplay:10.37,2013-06-25 00:40:00,
2013-06-24 20:45:00,80.1,71.1,29.86,West,262,5.0,21.0,74,0.00,CLR,CLR,0.00,0.0,WeatherDisplay:10.37,2013-06-25 00:45:00,
2013-06-24 20:50:00,80.1,71.1,29.86,West,263,6.0,12.0,74,0.00,CLR,CLR,0.00,0.0,WeatherDisplay:10.37,2013-06-25 00:50:00,
2013-06-24 20:55:00,80.1,71.1,29.86,West,264,5.0,10.0,74,0.00,CLR,CLR,0.00,0.0,WeatherDisplay:10.37,2013-06-25 00:55:00,
2013-06-24 21:00:00,80.1,71.0,29.87,WSW,258,3.0,12.0,74,0.00,CLR,CLR,0.00,0.0,WeatherDisplay:10.37,2013-06-25 01:00:00,
2013-06-24 21:10:00,79.9,70.9,29.87,West,269,2.0,7.0,74,0.00,CLR,CLR,0.00,0.0,WeatherDisplay:10.37,2013-06-25 01:10:00,
2013-06-24 21:15:00,79.8,70.8,29.87,West,263,2.0,9.0,74,0.00,CLR,CLR,0.00,0.0,WeatherDisplay:10.37,2013-06-25 01:15:00,
2013-06-24 21:20:00,79.8,70.8,29.87,West,261,6.0,13.0,74,0.00,CLR,CLR,0.00,0.0,WeatherDisplay:10.37,2013-06-25 01:20:00,
2013-06-24 21:30:00,79.7,70.7,29.88,West,275,5.0,12.0,74,0.00,CLR,CLR,0.00,0.0,WeatherDisplay:10.37,2013-06-25 01:30:00,
2013-06-24 21:40:00,79.6,70.6,29.88,NW,320,7.0,18.0,74,0.00,CLR,CLR,0.00,0.0,WeatherDisplay:10.37,2013-06-25 01:40:00,
2013-06-24 21:45:00,79.5,70.4,29.90,NNW,329,8.0,21.0,74,0.00,CLR,CLR,0.00,0.0,WeatherDisplay:10.37,2013-06-25 01:45:00,
2013-06-24 21:50:00,79.0,68.7,29.90,NNW,345,6.0,18.0,71,0.00,CLR,CLR,0.00,0.0,WeatherDisplay:10.37,2013-06-25 01:50:00,
2013-06-24 22:10:00,74.9,66.1,29.93,North,349,12.0,22.0,74,0.00,BKN,BKN,0.00,0.0,WeatherDisplay:10.37,2013-06-25 02:10:00,
2013-06-24 22:15:00,73.8,65.8,29.93,NNW,347,12.0,22.0,76,0.00,BKN,BKN,0.00,0.0,WeatherDisplay:10.37,2013-06-25 02:15:00,
2013-06-24 22:20:00,73.3,65.6,29.93,North,349,6.0,21.0,77,0.00,BKN,BKN,0.00,0.0,WeatherDisplay:10.37,2013-06-25 02:20:00,
2013-06-24 22:25:00,72.8,66.2,29.93,North,355,10.0,16.0,80,0.00,BKN,BKN,0.00,0.0,WeatherDisplay:10.37,2013-06-25 02:25:00,
2013-06-24 22:30:00,72.2,66.4,29.91,North,359,6.0,16.0,82,0.00,BKN,BKN,0.00,0.0,WeatherDisplay:10.37,2013-06-25 02:30:00,
2013-06-24 22:35:00,71.7,66.2,29.91,North,354,8.0,20.0,83,0.01,RA,RA,0.01,0.0,WeatherDisplay:10.37,2013-06-25 02:35:00,
2013-06-24 22:40:00,71.4,65.6,29.91,NNW,342,8.0,15.0,82,0.01,RA,RA,0.01,0.0,WeatherDisplay:10.37,2013-06-25 02:40:00,
2013-06-24 22:45:00,71.3,65.5,29.90,NNW,338,6.0,15.0,82,0.00,BKN,BKN,0.01,0.0,WeatherDisplay:10.37,2013-06-25 02:45:00,
2013-06-24 22:50:00,71.2,65.5,29.90,NNW,344,2.0,12.0,82,0.00,BKN,BKN,0.01,0.0,WeatherDisplay:10.37,2013-06-25 02:50:00,
2013-06-24 22:55:00,71.2,65.5,29.90,NNW,331,3.0,8.0,82,0.00,BKN,BKN,0.01,0.0,WeatherDisplay:10.37,2013-06-25 02:55:00,
2013-06-24 23:05:00,71.2,65.8,29.88,NNW,337,3.0,10.0,83,0.00,SCT,SCT,0.01,0.0,WeatherDisplay:10.37,2013-06-25 03:05:00,
2013-06-24 23:10:00,71.0,65.3,29.88,NNW,338,3.0,6.0,82,0.00,SCT,SCT,0.01,0.0,WeatherDisplay:10.37,2013-06-25 03:10:00,
2013-06-24 23:15:00,70.9,65.2,29.88,NNW,338,3.0,7.0,82,0.00,SCT,SCT,0.01,0.0,WeatherDisplay:10.37,2013-06-25 03:15:00,
2013-06-24 23:20:00,70.9,65.1,29.87,NNW,345,2.0,7.0,82,0.00,SCT,SCT,0.01,0.0,WeatherDisplay:10.37,2013-06-25 03:20:00,
2013-06-24 23:25:00,70.8,65.4,29.87,NNW,346,3.0,6.0,83,0.00,SCT,SCT,0.01,0.0,WeatherDisplay:10.37,2013-06-25 03:25:00,
2013-06-24 23:30:00,70.8,65.0,29.87,NNW,341,2.0,6.0,82,0.00,SCT,SCT,0.01,0.0,WeatherDisplay:10.37,2013-06-25 03:30:00,
2013-06-24 23:40:00,70.8,65.4,29.87,NW,319,1.0,4.0,83,0.00,SCT,SCT,0.01,0.0,WeatherDisplay:10.37,2013-06-25 03:40:00,
2013-06-24 23:45:00,70.7,65.3,29.87,NNW,329,1.0,5.0,83,0.00,SCT,SCT,0.01,0.0,WeatherDisplay:10.37,2013-06-25 03:45:00,
2013-06-24 23:55:00,70.4,65.3,29.86,NNW,327,0.0,2.0,84,0.00,SCT,SCT,0.01,0.0,WeatherDisplay:10.37,2013-06-25 03:55:00,